Satellite-Ground Cal/Val Region Overpasses Predictions

Prediction of Satellite NPP Overpassing Cal/Val Region: PacNW

Region Location: (Latitude: 10.00, Longitude: 139.50) to (Latitude: 22.70, Longitude: 165.60).

Table of predicted overpasses for the next 14.0 days since TLE Epoch: 3/6/2016
Interval Starting Time Starting Location Ending Time Ending Location
1 03/06/2016 15:37:39 ( 22.70, 150.85) 03/06/2016 15:41:15 ( 10.02, 147.84)
2 03/07/2016 02:46:45 ( 10.05, 158.37) 03/07/2016 02:50:20 ( 22.67, 155.37)
3 03/07/2016 15:18:37 ( 22.69, 155.61) 03/07/2016 15:22:13 ( 10.01, 152.60)
4 03/08/2016 02:27:42 ( 10.00, 163.14) 03/08/2016 02:31:18 ( 22.69, 160.13)
5 03/08/2016 14:59:34 ( 22.68, 160.37) 03/08/2016 15:03:09 ( 10.06, 157.37)
6 03/09/2016 02:11:26 ( 19.82, 165.60) 03/09/2016 02:12:15 ( 22.70, 164.89)
7 03/09/2016 03:50:09 ( 10.02, 142.52) 03/09/2016 03:53:44 ( 22.65, 139.52)
8 03/09/2016 14:40:32 ( 22.66, 165.12) 03/09/2016 14:44:07 ( 10.04, 162.12)
9 03/09/2016 16:22:02 ( 22.65, 139.74) 03/09/2016 16:22:18 ( 21.72, 139.51)
10 03/10/2016 03:31:07 ( 10.04, 147.28) 03/10/2016 03:34:42 ( 22.66, 144.28)
11 03/10/2016 16:03:00 ( 22.64, 144.50) 03/10/2016 16:06:35 ( 10.02, 141.50)
12 03/11/2016 03:12:04 ( 10.05, 152.04) 03/11/2016 03:15:39 ( 22.68, 149.04)
13 03/11/2016 15:43:56 ( 22.69, 149.27) 03/11/2016 15:47:32 ( 10.01, 146.26)
14 03/12/2016 02:53:01 ( 10.01, 156.81) 03/12/2016 02:56:37 ( 22.69, 153.79)
15 03/12/2016 15:24:54 ( 22.67, 154.03) 03/12/2016 15:28:29 ( 10.05, 151.03)
16 03/13/2016 02:33:58 ( 10.02, 161.56) 03/13/2016 02:37:33 ( 22.65, 158.56)
17 03/13/2016 15:05:51 ( 22.66, 158.78) 03/13/2016 15:09:26 ( 10.04, 155.79)
18 03/14/2016 02:15:50 ( 13.21, 165.59) 03/14/2016 02:18:31 ( 22.66, 163.32)
19 03/14/2016 03:56:26 ( 10.04, 140.94) 03/14/2016 03:58:11 ( 16.21, 139.51)
20 03/14/2016 14:46:49 ( 22.65, 163.54) 03/14/2016 14:50:24 ( 10.03, 160.54)
21 03/15/2016 03:37:22 ( 10.00, 145.71) 03/15/2016 03:40:58 ( 22.69, 142.70)
22 03/15/2016 14:30:59 ( 11.31, 165.59) 03/15/2016 14:31:21 ( 10.01, 165.30)
23
